TimeEST,TemperatureF,Dew PointF,Humidity,Sea Level PressureIn,VisibilityMPH,Wind Direction,Wind SpeedMPH,Gust SpeedMPH,PrecipitationIn,Events,Conditions,WindDirDegrees,DateUTC
12:15 AM,24.8,15.8,69,29.90,10.0,WNW,6.9,-,N/A,Snow,Light Snow,300,2013-03-03 05:15:00
12:35 AM,24.8,15.8,69,29.90,10.0,NW,10.4,16.1,N/A,Snow,Light Snow,310,2013-03-03 05:35:00
12:55 AM,24.8,15.8,69,29.89,10.0,NW,12.7,17.3,N/A,,Overcast,310,2013-03-03 05:55:00
1:15 AM,24.8,15.8,69,29.89,10.0,WNW,13.8,-,N/A,Snow,Light Snow,300,2013-03-03 06:15:00
1:35 AM,24.8,15.8,69,29.90,10.0,WNW,13.8,-,N/A,Snow,Light Snow,300,2013-03-03 06:35:00
1:55 AM,24.8,15.8,69,29.90,10.0,WNW,10.4,-,N/A,,Overcast,290,2013-03-03 06:55:00
2:15 AM,24.8,14.0,64,29.89,10.0,NW,8.1,-,N/A,,Overcast,310,2013-03-03 07:15:00
2:35 AM,24.8,15.8,69,29.89,10.0,WNW,9.2,-,N/A,Snow,Light Snow,300,2013-03-03 07:35:00
2:55 AM,24.8,15.8,69,29.89,10.0,NW,6.9,-,N/A,,Overcast,310,2013-03-03 07:55:00
3:15 AM,24.8,15.8,69,29.89,7.0,WNW,8.1,-,N/A,Snow,Light Snow,300,2013-03-03 08:15:00
3:35 AM,24.8,15.8,69,29.88,10.0,NNW,10.4,-,N/A,Snow,Light Snow,330,2013-03-03 08:35:00
4:15 AM,24.8,14.0,64,29.88,10.0,WNW,17.3,20.7,N/A,Snow,Light Snow,300,2013-03-03 09:15:00
4:35 AM,24.8,15.8,69,29.88,10.0,WNW,13.8,21.9,N/A,,Overcast,300,2013-03-03 09:35:00
4:55 AM,24.8,15.8,69,29.88,10.0,WNW,12.7,18.4,N/A,,Overcast,300,2013-03-03 09:55:00
5:15 AM,24.8,12.2,59,29.89,10.0,WNW,10.4,19.6,N/A,,Overcast,300,2013-03-03 10:15:00
5:35 AM,24.8,14.0,64,29.89,10.0,WNW,10.4,17.3,N/A,,Overcast,290,2013-03-03 10:35:00
5:55 AM,24.8,14.0,64,29.89,10.0,WNW,11.5,18.4,N/A,Snow,Light Snow,300,2013-03-03 10:55:00
6:15 AM,24.8,15.8,69,29.89,10.0,WNW,10.4,-,N/A,,Overcast,300,2013-03-03 11:15:00
6:35 AM,24.8,15.8,69,29.89,10.0,NW,9.2,18.4,N/A,Snow,Light Snow,310,2013-03-03 11:35:00
6:55 AM,24.8,15.8,69,29.90,5.0,NW,9.2,16.1,N/A,Snow,Light Snow,320,2013-03-03 11:55:00
7:15 AM,24.8,15.8,69,29.90,7.0,NW,8.1,-,N/A,Snow,Light Snow,320,2013-03-03 12:15:00
7:35 AM,24.8,17.6,74,29.91,5.0,NW,10.4,17.3,N/A,Snow,Light Snow,320,2013-03-03 12:35:00
7:55 AM,24.8,17.6,74,29.92,5.0,NW,9.2,-,N/A,Snow,Light Snow,310,2013-03-03 12:55:00
8:15 AM,24.8,17.6,74,29.92,7.0,NW,9.2,-,N/A,Snow,Light Snow,320,2013-03-03 13:15:00
8:35 AM,24.8,17.6,74,29.92,3.0,NW,8.1,-,N/A,Snow,Light Snow,310,2013-03-03 13:35:00
8:55 AM,24.8,17.6,74,29.92,4.0,NNW,6.9,-,N/A,Snow,Light Snow,330,2013-03-03 13:55:00
9:15 AM,24.8,19.4,80,29.92,3.0,NNW,5.8,-,N/A,Snow,Light Snow,340,2013-03-03 14:15:00
9:35 AM,24.8,19.4,80,29.92,3.0,North,5.8,-,N/A,Snow,Light Snow,350,2013-03-03 14:35:00
9:55 AM,24.8,19.4,80,29.92,5.0,NW,6.9,-,N/A,Snow,Light Snow,320,2013-03-03 14:55:00
10:15 AM,24.8,19.4,80,29.91,10.0,North,5.8,-,N/A,Snow,Light Snow,350,2013-03-03 15:15:00
10:35 AM,24.8,17.6,74,29.91,10.0,NW,8.1,-,N/A,Snow,Light Snow,320,2013-03-03 15:35:00
10:55 AM,24.8,17.6,74,29.91,10.0,NW,13.8,17.3,N/A,Snow,Light Snow,310,2013-03-03 15:55:00
11:15 AM,24.8,15.8,69,29.92,10.0,NNW,6.9,-,N/A,Snow,Light Snow,330,2013-03-03 16:15:00
11:35 AM,26.6,17.6,69,29.92,10.0,NNW,5.8,-,N/A,,Overcast,340,2013-03-03 16:35:00
11:55 AM,26.6,15.8,64,29.91,10.0,West,11.5,-,N/A,Snow,Light Snow,280,2013-03-03 16:55:00
12:15 PM,26.6,17.6,69,29.91,10.0,NW,9.2,-,N/A,Snow,Light Snow,320,2013-03-03 17:15:00
12:35 PM,26.6,15.8,64,29.91,10.0,WNW,12.7,18.4,N/A,,Overcast,290,2013-03-03 17:35:00
12:55 PM,26.6,15.8,64,29.90,10.0,WNW,11.5,-,N/A,Snow,Light Snow,290,2013-03-03 17:55:00
1:15 PM,26.6,15.8,64,29.89,10.0,WNW,15.0,18.4,N/A,Snow,Light Snow,290,2013-03-03 18:15:00
1:35 PM,26.6,15.8,64,29.89,10.0,WNW,13.8,19.6,N/A,,Overcast,300,2013-03-03 18:35:00
1:55 PM,26.6,15.8,64,29.89,10.0,NW,10.4,24.2,N/A,Snow,Light Snow,310,2013-03-03 18:55:00
2:15 PM,28.4,15.8,59,29.89,10.0,WNW,12.7,21.9,N/A,,Overcast,290,2013-03-03 19:15:00
2:35 PM,28.4,15.8,59,29.89,10.0,NW,9.2,-,N/A,,Overcast,320,2013-03-03 19:35:00
2:55 PM,28.4,15.8,59,29.89,10.0,NW,12.7,18.4,N/A,Snow,Light Snow,320,2013-03-03 19:55:00
3:15 PM,30.2,15.8,55,29.88,10.0,WNW,13.8,19.6,N/A,,Overcast,290,2013-03-03 20:15:00
3:35 PM,28.4,15.8,59,29.88,10.0,WNW,12.7,20.7,N/A,,Overcast,290,2013-03-03 20:35:00
3:55 PM,28.4,15.8,59,29.88,10.0,WNW,10.4,18.4,N/A,,Overcast,290,2013-03-03 20:55:00
4:15 PM,28.4,17.6,64,29.89,10.0,WNW,11.5,18.4,N/A,,Overcast,300,2013-03-03 21:15:00
4:55 PM,28.4,17.6,64,29.89,10.0,NW,11.5,16.1,N/A,,Overcast,310,2013-03-03 21:55:00
5:15 PM,28.4,19.4,69,29.90,5.0,NW,9.2,16.1,N/A,Snow,Light Snow,310,2013-03-03 22:15:00
5:35 PM,28.4,15.8,59,29.90,10.0,WNW,12.7,18.4,N/A,,Mostly Cloudy,300,2013-03-03 22:35:00
5:55 PM,26.6,15.8,64,29.91,10.0,WNW,12.7,18.4,N/A,,Mostly Cloudy,290,2013-03-03 22:55:00
6:15 PM,26.6,17.6,69,29.91,10.0,West,11.5,20.7,N/A,Snow,Light Snow,280,2013-03-03 23:15:00
6:35 PM,26.6,17.6,69,29.91,7.0,WNW,12.7,-,N/A,Snow,Light Snow,300,2013-03-03 23:35:00
6:55 PM,26.6,19.4,74,29.92,7.0,WNW,15.0,-,N/A,Snow,Light Snow,290,2013-03-03 23:55:00
7:35 PM,26.6,15.8,64,29.94,10.0,WNW,13.8,18.4,N/A,,Mostly Cloudy,300,2013-03-04 00:35:00
7:55 PM,26.6,15.8,64,29.94,10.0,West,13.8,18.4,N/A,Snow,Light Snow,280,2013-03-04 00:55:00
8:15 PM,26.6,17.6,69,29.94,10.0,WNW,11.5,20.7,N/A,Snow,Light Snow,290,2013-03-04 01:15:00
8:35 PM,26.6,15.8,64,29.95,10.0,West,17.3,26.5,N/A,Snow,Light Snow,280,2013-03-04 01:35:00
8:55 PM,24.8,14.0,64,29.96,10.0,WNW,12.7,-,N/A,,Overcast,290,2013-03-04 01:55:00
9:15 PM,24.8,12.2,59,29.96,10.0,NW,16.1,20.7,N/A,,Overcast,310,2013-03-04 02:15:00
9:35 PM,24.8,12.2,59,29.96,10.0,NW,11.5,-,N/A,,Overcast,310,2013-03-04 02:35:00
9:55 PM,24.8,14.0,64,29.95,10.0,NW,10.4,18.4,N/A,,Overcast,310,2013-03-04 02:55:00
10:15 PM,24.8,15.8,69,29.96,10.0,NW,9.2,17.3,N/A,,Overcast,310,2013-03-04 03:15:00
10:35 PM,24.8,15.8,69,29.95,10.0,NW,15.0,21.9,N/A,Snow,Light Snow,310,2013-03-04 03:35:00
10:55 PM,24.8,15.8,69,29.95,10.0,NW,10.4,18.4,N/A,Snow,Light Snow,310,2013-03-04 03:55:00
11:15 PM,24.8,15.8,69,29.95,10.0,WNW,11.5,18.4,N/A,Snow,Light Snow,300,2013-03-04 04:15:00
11:35 PM,24.8,15.8,69,29.95,10.0,NW,12.7,20.7,N/A,,Overcast,320,2013-03-04 04:35:00
11:55 PM,24.8,15.8,69,29.95,10.0,WNW,9.2,19.6,N/A,,Mostly Cloudy,300,2013-03-04 04:55:00